QXE2109 KPSC-KSEA

Flight info

Callsign QXE2109
Flight time 0h 38m
Altitude 16000
Route PSC PAPPS YKM CHINS5
Aircraft DH8D/M-SDE2E3FGRY/H

Departure

Time 2026-05-04 02:09
Airport Tri Cities Airport (KPSC)

Arrival

Time 2026-05-04 02:47
Airport Seattle–Tacoma International Airport (KSEA)
Time Latitude Longitude Altitude Speed Heading
2026-05-04 02:02 46.25895 -119.11219 407 ft 0 kts 317°
2026-05-04 02:02 46.25897 -119.11221 407 ft 1 kts 320°
2026-05-04 02:03 46.25923 -119.11224 407 ft 4 kts 25°
2026-05-04 02:03 46.25952 -119.11208 407 ft 5 kts 355°
2026-05-04 02:03 46.25982 -119.11227 407 ft 4 kts 323°
2026-05-04 02:03 46.26002 -119.11253 407 ft 3 kts 317°
2026-05-04 02:04 46.26016 -119.11271 407 ft 1 kts 317°
2026-05-04 02:04 46.26038 -119.11302 408 ft 5 kts 315°
2026-05-04 02:04 46.26064 -119.11340 408 ft 4 kts 314°
2026-05-04 02:04 46.26081 -119.11364 408 ft 0 kts 315°
2026-05-04 02:06 46.26104 -119.11397 408 ft 6 kts 316°
2026-05-04 02:06 46.26140 -119.11459 407 ft 11 kts 290°
2026-05-04 02:06 46.26107 -119.11622 407 ft 18 kts 246°
2026-05-04 02:07 46.26137 -119.11777 407 ft 19 kts 297°
2026-05-04 02:07 46.26071 -119.11969 407 ft 25 kts 226°
2026-05-04 02:07 46.25948 -119.12168 410 ft 24 kts 237°
2026-05-04 02:07 46.25885 -119.12370 410 ft 20 kts 248°
2026-05-04 02:08 46.25835 -119.12558 410 ft 18 kts 261°
2026-05-04 02:08 46.25894 -119.12703 410 ft 14 kts 316°
2026-05-04 02:08 46.25974 -119.12769 410 ft 15 kts 12°
2026-05-04 02:08 46.26125 -119.12568 409 ft 53 kts 48°
2026-05-04 02:09 46.26583 -119.11891 411 ft 128 kts 46°
2026-05-04 02:09 46.27233 -119.10850 679 ft 143 kts 50°
2026-05-04 02:09 46.27706 -119.09673 1272 ft 135 kts 67°
2026-05-04 02:09 46.28021 -119.08315 1532 ft 155 kts 72°
2026-05-04 02:10 46.28402 -119.06777 1858 ft 168 kts 69°
2026-05-04 02:10 46.28775 -119.05263 2465 ft 161 kts 68°
2026-05-04 02:10 46.29220 -119.03634 2721 ft 180 kts 68°
2026-05-04 02:10 46.29849 -119.02057 3123 ft 185 kts 43°
2026-05-04 02:11 46.30996 -119.01320 3580 ft 187 kts
2026-05-04 02:11 46.32253 -119.01785 4072 ft 194 kts 328°
2026-05-04 02:11 46.33196 -119.03351 4241 ft 227 kts 297°
2026-05-04 02:11 46.33629 -119.05597 4721 ft 238 kts 285°
2026-05-04 02:12 46.34006 -119.07945 5315 ft 240 kts 285°
2026-05-04 02:12 46.34367 -119.10325 5909 ft 243 kts 284°
2026-05-04 02:12 46.34709 -119.12706 6491 ft 243 kts 284°
2026-05-04 02:12 46.35040 -119.15114 6896 ft 245 kts 284°
2026-05-04 02:13 46.35368 -119.17548 7324 ft 247 kts 284°
2026-05-04 02:13 46.35689 -119.19982 7749 ft 248 kts 284°
2026-05-04 02:13 46.36008 -119.22441 8175 ft 249 kts 284°
2026-05-04 02:13 46.36322 -119.24887 8554 ft 252 kts 284°
2026-05-04 02:14 46.36652 -119.27466 8835 ft 256 kts 284°
2026-05-04 02:14 46.36969 -119.29985 9189 ft 259 kts 284°
2026-05-04 02:14 46.37285 -119.32515 9609 ft 259 kts 284°
2026-05-04 02:14 46.37608 -119.35108 10006 ft 259 kts 284°
2026-05-04 02:15 46.37928 -119.37677 10324 ft 262 kts 284°
2026-05-04 02:15 46.38252 -119.40301 10682 ft 263 kts 284°
2026-05-04 02:15 46.38575 -119.42912 11007 ft 266 kts 283°
2026-05-04 02:15 46.38896 -119.45523 11362 ft 267 kts 283°
2026-05-04 02:16 46.39224 -119.48202 11723 ft 268 kts 283°
2026-05-04 02:16 46.39550 -119.50863 12027 ft 270 kts 283°
2026-05-04 02:16 46.39880 -119.53566 12322 ft 272 kts 283°
2026-05-04 02:16 46.40207 -119.56243 12635 ft 273 kts 283°
2026-05-04 02:17 46.40539 -119.58976 12926 ft 276 kts 283°
2026-05-04 02:17 46.40871 -119.61711 13203 ft 277 kts 283°
2026-05-04 02:17 46.41204 -119.64468 13479 ft 279 kts 283°
2026-05-04 02:17 46.41544 -119.67286 13739 ft 281 kts 282°
2026-05-04 02:18 46.41876 -119.70038 14053 ft 281 kts 282°
2026-05-04 02:18 46.42215 -119.72855 14309 ft 282 kts 282°
2026-05-04 02:18 46.42549 -119.75640 14549 ft 285 kts 282°
2026-05-04 02:18 46.42888 -119.78470 14828 ft 285 kts 282°
2026-05-04 02:19 46.43228 -119.81317 15078 ft 287 kts 282°
2026-05-04 02:19 46.43564 -119.84134 15352 ft 287 kts 282°
2026-05-04 02:19 46.43979 -119.86971 15600 ft 286 kts 288°
2026-05-04 02:19 46.44604 -119.89777 15828 ft 287 kts 291°
2026-05-04 02:20 46.45246 -119.92540 16069 ft 288 kts 291°
2026-05-04 02:20 46.45890 -119.95312 16337 ft 288 kts 291°
2026-05-04 02:20 46.46534 -119.98098 16514 ft 290 kts 291°
2026-05-04 02:20 46.47183 -120.00906 16495 ft 300 kts 291°
2026-05-04 02:21 46.47846 -120.03790 16461 ft 309 kts 291°
2026-05-04 02:21 46.48537 -120.06801 16326 ft 319 kts 290°
2026-05-04 02:21 46.49236 -120.09860 16241 ft 326 kts 290°
2026-05-04 02:21 46.49965 -120.13051 16054 ft 335 kts 290°
2026-05-04 02:22 46.50699 -120.16277 15990 ft 338 kts 290°
2026-05-04 02:22 46.51434 -120.19522 15978 ft 340 kts 290°
2026-05-04 02:22 46.52178 -120.22807 15991 ft 340 kts 290°
2026-05-04 02:22 46.52911 -120.26053 15999 ft 341 kts 290°
2026-05-04 02:23 46.53651 -120.29327 15991 ft 341 kts 290°
2026-05-04 02:23 46.54394 -120.32625 15990 ft 341 kts 290°
2026-05-04 02:23 46.55138 -120.35929 15986 ft 342 kts 290°
2026-05-04 02:23 46.55874 -120.39207 15990 ft 342 kts 290°
2026-05-04 02:24 46.56607 -120.42470 15995 ft 342 kts 290°
2026-05-04 02:24 46.57576 -120.45630 15974 ft 340 kts 304°
2026-05-04 02:24 46.58902 -120.48452 15986 ft 339 kts 307°
2026-05-04 02:24 46.60237 -120.51218 15994 ft 339 kts 307°
2026-05-04 02:25 46.61595 -120.54027 16003 ft 339 kts 307°
2026-05-04 02:25 46.62965 -120.56871 16009 ft 340 kts 307°
2026-05-04 02:25 46.64325 -120.59702 16008 ft 340 kts 307°
2026-05-04 02:25 46.65687 -120.62546 16019 ft 340 kts 307°
2026-05-04 02:26 46.67029 -120.65353 16026 ft 340 kts 307°
2026-05-04 02:26 46.68392 -120.68210 16019 ft 341 kts 306°
2026-05-04 02:26 46.69746 -120.71052 16014 ft 341 kts 306°
2026-05-04 02:26 46.71105 -120.73910 16020 ft 341 kts 306°
2026-05-04 02:27 46.72458 -120.76759 16024 ft 342 kts 306°
2026-05-04 02:27 46.73803 -120.79597 16037 ft 341 kts 306°
2026-05-04 02:27 46.75155 -120.82449 16050 ft 342 kts 306°
2026-05-04 02:27 46.76495 -120.85281 16069 ft 342 kts 306°
2026-05-04 02:28 46.77860 -120.88170 16080 ft 342 kts 306°
2026-05-04 02:28 46.79201 -120.91011 16098 ft 342 kts 307°
2026-05-04 02:28 46.80562 -120.93897 16117 ft 342 kts 306°
2026-05-04 02:28 46.81898 -120.96733 16136 ft 341 kts 306°
2026-05-04 02:29 46.83240 -120.99586 16154 ft 341 kts 306°
2026-05-04 02:29 46.84585 -121.02448 16161 ft 341 kts 306°
2026-05-04 02:29 46.85915 -121.05280 16162 ft 341 kts 307°
2026-05-04 02:29 46.87283 -121.08193 15726 ft 352 kts 306°
2026-05-04 02:30 46.88654 -121.11122 15079 ft 345 kts 306°
2026-05-04 02:30 46.89967 -121.13950 14650 ft 331 kts 306°
2026-05-04 02:30 46.91233 -121.16677 14304 ft 316 kts 306°
2026-05-04 02:30 46.92453 -121.19302 13985 ft 303 kts 306°
2026-05-04 02:31 46.93641 -121.21845 13690 ft 299 kts 306°
2026-05-04 02:31 46.94811 -121.24352 13392 ft 295 kts 306°
2026-05-04 02:31 46.95966 -121.26827 13094 ft 292 kts 306°
2026-05-04 02:31 46.97095 -121.29251 12805 ft 288 kts 306°
2026-05-04 02:32 46.98215 -121.31658 12512 ft 286 kts 306°
2026-05-04 02:32 46.99332 -121.34061 12215 ft 286 kts 306°
2026-05-04 02:32 47.00459 -121.36478 11938 ft 288 kts 306°
2026-05-04 02:32 47.01602 -121.38934 11671 ft 290 kts 306°
2026-05-04 02:33 47.02733 -121.41370 11421 ft 291 kts 305°
2026-05-04 02:33 47.03866 -121.43814 11176 ft 291 kts 305°
2026-05-04 02:33 47.05018 -121.46300 10932 ft 291 kts 305°
2026-05-04 02:33 47.06155 -121.48759 10700 ft 291 kts 305°
2026-05-04 02:34 47.07289 -121.51213 10473 ft 290 kts 305°
2026-05-04 02:34 47.08409 -121.53642 10249 ft 289 kts 304°
2026-05-04 02:34 47.09524 -121.56061 10021 ft 289 kts 304°
2026-05-04 02:34 47.10658 -121.58523 9794 ft 288 kts 304°
2026-05-04 02:35 47.11773 -121.60946 9569 ft 288 kts 305°
2026-05-04 02:35 47.12766 -121.63495 9325 ft 288 kts 294°
2026-05-04 02:35 47.13204 -121.66292 9046 ft 279 kts 276°
2026-05-04 02:35 47.13339 -121.69099 8781 ft 270 kts 275°
2026-05-04 02:36 47.13452 -121.71770 8573 ft 263 kts 275°
2026-05-04 02:36 47.13558 -121.74458 8365 ft 258 kts 274°
2026-05-04 02:36 47.13665 -121.77123 8174 ft 267 kts 275°
2026-05-04 02:36 47.13773 -121.79855 7971 ft 270 kts 275°
2026-05-04 02:37 47.13881 -121.82667 7726 ft 273 kts 275°
2026-05-04 02:37 47.13983 -121.85416 7473 ft 265 kts 275°
2026-05-04 02:37 47.14067 -121.88041 7207 ft 252 kts 274°
2026-05-04 02:37 47.14150 -121.90539 6942 ft 240 kts 275°
2026-05-04 02:38 47.14225 -121.92960 6686 ft 234 kts 275°
2026-05-04 02:38 47.14297 -121.95323 6443 ft 236 kts 275°
2026-05-04 02:38 47.14367 -121.97784 6199 ft 242 kts 275°
2026-05-04 02:38 47.14435 -122.00282 5965 ft 248 kts 275°
2026-05-04 02:39 47.14501 -122.02805 5712 ft 247 kts 275°
2026-05-04 02:39 47.14572 -122.05306 5459 ft 245 kts 275°
2026-05-04 02:39 47.14644 -122.07787 5216 ft 243 kts 275°
2026-05-04 02:39 47.14721 -122.10242 5064 ft 235 kts 275°
2026-05-04 02:40 47.14792 -122.12574 5011 ft 224 kts 275°
2026-05-04 02:40 47.14853 -122.14803 4990 ft 210 kts 275°
2026-05-04 02:40 47.14902 -122.16879 4974 ft 197 kts 275°
2026-05-04 02:40 47.14946 -122.18817 5001 ft 186 kts 275°
2026-05-04 02:41 47.14994 -122.20760 4995 ft 194 kts 275°
2026-05-04 02:41 47.15055 -122.22786 4997 ft 200 kts 277°
2026-05-04 02:41 47.15462 -122.24734 4985 ft 201 kts 308°
2026-05-04 02:41 47.16539 -122.25977 4997 ft 200 kts 338°
2026-05-04 02:42 47.17862 -122.26751 4996 ft 208 kts 340°
2026-05-04 02:42 47.19284 -122.27288 4900 ft 215 kts 352°
2026-05-04 02:42 47.20787 -122.27563 4542 ft 224 kts 355°
2026-05-04 02:42 47.22349 -122.27755 4315 ft 227 kts 357°
2026-05-04 02:43 47.23940 -122.28069 3886 ft 236 kts 349°
2026-05-04 02:43 47.25554 -122.28674 3276 ft 239 kts 346°
2026-05-04 02:43 47.27111 -122.29308 3151 ft 223 kts 346°
2026-05-04 02:43 47.28575 -122.29931 2861 ft 215 kts 346°
2026-05-04 02:44 47.30036 -122.30389 2387 ft 216 kts 352°
2026-05-04 02:44 47.31490 -122.30632 2206 ft 201 kts 356°
2026-05-04 02:44 47.32846 -122.30743 1950 ft 187 kts 359°
2026-05-04 02:44 47.34064 -122.30777 1698 ft 167 kts
2026-05-04 02:45 47.35184 -122.30827 1431 ft 156 kts 359°
2026-05-04 02:45 47.36265 -122.30862 1191 ft 158 kts
2026-05-04 02:45 47.37377 -122.30841 1096 ft 161 kts
2026-05-04 02:45 47.38500 -122.30794 1099 ft 161 kts
2026-05-04 02:46 47.39601 -122.30823 971 ft 151 kts 360°
2026-05-04 02:46 47.40614 -122.30825 874 ft 137 kts 360°
2026-05-04 02:46 47.41557 -122.30817 712 ft 137 kts
2026-05-04 02:46 47.42503 -122.30809 492 ft 133 kts
2026-05-04 02:47 47.43391 -122.30797 342 ft 120 kts
2026-05-04 02:47 47.44017 -122.30798 370 ft 56 kts
2026-05-04 02:47 47.44261 -122.30797 379 ft 15 kts
2026-05-04 02:47 47.44335 -122.30754 381 ft 10 kts 53°
2026-05-04 02:48 47.44357 -122.30663 382 ft 8 kts 54°
2026-05-04 02:48 47.44401 -122.30632 384 ft 6 kts
2026-05-04 02:48 47.44442 -122.30631 386 ft 5 kts
2026-05-04 02:48 47.44487 -122.30630 387 ft 10 kts
2026-05-04 02:49 47.44568 -122.30629 389 ft 9 kts
2026-05-04 02:49 47.44612 -122.30613 390 ft 6 kts 43°
2026-05-04 02:49 47.44625 -122.30592 390 ft 0 kts 57°
2026-05-04 02:49 47.44629 -122.30580 391 ft 2 kts 67°
2026-05-04 02:50 47.44631 -122.30542 392 ft 5 kts 100°
2026-05-04 02:50 47.44612 -122.30497 392 ft 6 kts 133°
2026-05-04 02:50 47.44597 -122.30475 391 ft 0 kts 135°